WA6MHA-11 Weather Reports


time (UTC)temp
C
wind
direction
speed
KPH
gust
KPH
rain 1hr
cm
rain 24hr
cm
rain mn
cm
humidity
%
barometer
mb
20260904235901 31 157 8.0 14.5 0.00 0.00 0.00 22 1013.7
20260904235459 31 135 8.0 12.9 0.00 0.00 0.00 22 1013.6
20260904235058 31 177 6.4 19.3 0.00 0.00 0.00 22 1013.7
20260904234657 32 198 4.8 9.7 0.00 0.00 0.00 21 1013.7
20260904234255 31 182 4.8 8.0 0.00 0.00 0.00 22 1013.7
20260904233452 32 182 8.0 16.1 0.00 0.00 0.00 22 1013.7
20260904232650 32 173 11.3 14.5 0.00 0.00 0.00 22 1013.8
20260904232250 32 202 9.7 12.9 0.00 0.00 0.00 22 1013.7
20260904231848 32 135 6.4 14.5 0.00 0.00 0.00 22 1013.8
20260904230644 32 160 12.9 16.1 0.00 0.00 0.00 21 1013.8
20260904230243 32 222 14.5 20.9 0.00 0.00 0.00 22 1013.8
20260904225432 32 193 9.7 16.1 0.00 0.00 0.00 22 1013.9
20260904225031 32 162 8.0 14.5 0.00 0.00 0.00 22 1013.9
20260904224630 32 175 12.9 14.5 0.00 0.00 0.00 22 1013.9
20260904224229 33 177 14.5 17.7 0.00 0.00 0.00 22 1013.9
20260904223828 32 168 8.0 16.1 0.00 0.00 0.00 21 1013.9
20260904222623 33 180 12.9 16.1 0.00 0.00 0.00 22 1013.9
20260904221821 33 191 8.0 11.3 0.00 0.00 0.00 21 1013.8
20260904221420 33 146 3.2 17.7 0.00 0.00 0.00 22 1014.1
20260904221018 33 171 6.4 20.9 0.00 0.00 0.00 22 1014.1
20260904220617 33 192 8.0 12.9 0.00 0.00 0.00 22 1014.1
20260904220216 33 157 8.0 16.1 0.00 0.00 0.00 23 1014.0
20260904215814 33 157 9.7 17.7 0.00 0.00 0.00 23 1014.1
20260904215012 33 198 12.9 22.5 0.00 0.00 0.00 22 1014.1
20260904214611 33 155 9.7 16.1 0.00 0.00 0.00 22 1014.1
20260904214209 33 184 14.5 17.7 0.00 0.00 0.00 22 1014.2
20260904213808 33 193 11.3 17.7 0.00 0.00 0.00 23 1014.2
20260904213407 33 191 12.9 19.3 0.00 0.00 0.00 22 1014.1
20260904212605 32 182 12.9 14.5 0.00 0.00 0.00 23 1014.3
20260904212203 32 170 9.7 19.3 0.00 0.00 0.00 24 1014.2
20260904211401 32 175 12.9 16.1 0.00 0.00 0.00 24 1014.3
20260904210959 32 140 12.9 14.5 0.00 0.00 0.00 24 1014.2
20260904210736 32 132 8.0 17.7 0.00 0.00 0.00 24 1014.2
20260904210559 32 132 8.0 17.7 0.00 0.00 0.00 0.1
20260904210157 32 200 14.5 17.7 0.00 0.00 0.00 24 1014.2
20260904205756 32 51 3.2 16.1 0.00 0.00 0.00 24 1014.2
20260904205354 32 135 14.5 17.7 0.00 0.00 0.00 24 1014.1
20260904204953 33 261 3.2 9.7 0.00 0.00 0.00 24 1014.1
20260904204553 32 191 6.4 14.5 0.00 0.00 0.00 24 1014.2
20260904204151 31 137 4.8 16.1 0.00 0.00 0.00 24 1014.2
20260904203749 31 119 6.4 14.5 0.00 0.00 0.00 24 1014.2
20260904203348 32 135 9.7 16.1 0.00 0.00 0.00 24 1014.2
20260904202144 33 180 4.8 9.7 0.00 0.00 0.00 24 1014.3
20260904201743 32 247 3.2 11.3 0.00 0.00 0.00 25 1014.5
20260904201342 31 81 3.2 19.3 0.00 0.00 0.00 25 1014.5
20260904200940 32 182 9.7 12.9 0.00 0.00 0.00 25 1014.5
20260904195737 28 0 3.2 12.9 0.00 0.00 0.00 25 1014.7
20260904195336 29 137 11.3 14.5 0.00 0.00 0.00 26 1014.8
20260904194934 30 171 9.7 14.5 0.00 0.00 0.00 26 1014.8
20260904194532 29 175 11.3 14.5 0.00 0.00 0.00 26 1014.8
20260904194130 29 114 14.5 19.3 0.00 0.00 0.00 26 1014.7
20260904193730 30 81 4.8 8.0 0.00 0.00 0.00 27 1014.9
20260904193329 30 153 9.7 16.1 0.00 0.00 0.00 27 1015.0
20260904192927 30 157 4.8 11.3 0.00 0.00 0.00 27 1015.0
20260904192526 28 144 8.0 17.7 0.00 0.00 0.00 27 1015.0
20260904192125 29 96 11.3 20.9 0.00 0.00 0.00 27 1015.1
20260904191723 29 110 8.0 16.1 0.00 0.00 0.00 27 1015.1
20260904191322 30 137 4.8 14.5 0.00 0.00 0.00 27 1015.2
20260904190921 30 230 1.6 11.3 0.00 0.00 0.00 27 1015.3
20260904190112 28 135 12.9 16.1 0.00 0.00 0.00 28 1015.4
20260904185711 28 119 12.9 14.5 0.00 0.00 0.00 28 1015.2
20260904184908 28 81 9.7 14.5 0.00 0.00 0.00 28 1015.5
20260904184107 30 40 1.6 8.0 0.00 0.00 0.00 19 1015.5
20260904183706 29 135 11.3 14.5 0.00 0.00 0.00 29 1015.6
20260904182901 30 267 1.6 8.0 0.00 0.00 0.00 29 1015.5
20260904182500 29 90 1.6 14.5 0.00 0.00 0.00 29 1015.6
20260904182059 30 101 6.4 11.3 0.00 0.00 0.00 29 1015.6
20260904181658 30 230 4.8 8.0 0.00 0.00 0.00 29 1015.6
20260904181257 30 200 3.2 9.7 0.00 0.00 0.00 30 1015.6
20260904180902 30 107 4.8 12.9 0.00 0.00 0.00 30 1015.7
20260904180454 30 42 3.2 11.3 0.00 0.00 0.00 30 1015.6
20260904180052 30 189 4.8 11.3 0.00 0.00 0.00 30 1015.7
20260904175651 30 177 1.6 9.7 0.00 0.00 0.00 31 1015.8
20260904175250 30 182 6.4 12.9 0.00 0.00 0.00 31 1015.8
20260904174849 30 191 8.0 11.3 0.00 0.00 0.00 31 1015.6
20260904174046 29 115 1.6 9.7 0.00 0.00 0.00 32 1015.7
20260904173645 28 171 9.7 9.7 0.00 0.00 0.00 32 1015.6
20260904173244 28 164 4.8 9.7 0.00 0.00 0.00 33 1015.6
20260904172843 28 274 4.8 8.0 0.00 0.00 0.00 33 1015.6
20260904172040 27 130 8.0 9.7 0.00 0.00 0.00 34 1015.6
20260904171639 27 119 0.0 8.0 0.00 0.00 0.00 34 1015.6
20260904170836 26 117 1.6 6.4 0.00 0.00 0.00 35 1015.6
20260904170436 26 40 1.6 11.3 0.00 0.00 0.00 36 1015.5
20260904170036 25 135 8.0 12.9 0.00 0.00 0.00 36 1015.4
20260904165632 26 157 9.7 12.9 0.00 0.00 0.00 37 1015.4
20260904165230 25 85 6.4 11.3 0.00 0.00 0.00 37 1015.4
20260904164834 26 137 8.0 8.0 0.00 0.00 0.00 38 1015.3
20260904164029 25 132 1.6 9.7 0.00 0.00 0.00 39 1015.3
20260904163626 25 81 1.6 11.3 0.00 0.00 0.00 39 1015.3
20260904163225 24 87 9.7 12.9 0.00 0.00 0.00 40 1015.3
20260904162823 24 83 11.3 11.3 0.00 0.00 0.00 40 1015.3
20260904162422 24 112 4.8 11.3 0.00 0.00 0.00 41 1015.3
20260904161619 24 78 8.0 12.9 0.00 0.00 0.00 42 1015.3
20260904160415 25 173 1.6 6.4 0.00 0.00 0.00 45 1015.2
20260904155607 23 175 4.8 6.4 0.00 0.00 0.00 46 1015.3
20260904154805 22 83 3.2 8.0 0.00 0.00 0.00 47 1015.3
20260904154403 21 119 6.4 9.7 0.00 0.00 0.00 47 1015.3
20260904154001 21 103 4.8 8.0 0.00 0.00 0.00 47 1015.2
20260904153600 20 99 6.4 9.7 0.00 0.00 0.00 47 1015.3
20260904153159 20 110 4.8 8.0 0.00 0.00 0.00 47 1015.2
20260904152758 21 81 6.4 9.7 0.00 0.00 0.00 48 1015.2
20260904152358 21 94 4.8 8.0 0.00 0.00 0.00 48 1015.2
20260904151956 21 90 6.4 9.7 0.00 0.00 0.00 49 1015.2
20260904151153 21 132 4.8 8.0 0.00 0.00 0.00 50 1015.1
20260904145949 19 137 0.0 4.8 0.00 0.00 0.00 51 1015.1
20260904145548 19 42 0.0 1.6 0.00 0.00 0.00 51 1015.0
20260904144747 19 36 0.0 1.6 0.00 0.00 0.00 52 1014.9
20260904143541 18 315 0.0 1.6 0.00 0.00 0.00 52 1014.9
20260904142340 17 274 0.0 0.0 0.00 0.00 0.00 53 1014.8
20260904141939 16 288 0.0 0.0 0.00 0.00 0.00 53 1014.7
20260904141535 16 182 0.0 0.0 0.00 0.00 0.00 53 1014.6
20260904141134 15 233 0.0 0.0 0.00 0.00 0.00 53 1014.6
20260904140734 15 237 0.0 0.0 0.00 0.00 0.00 53 1014.5
20260904140330 15 232 0.0 0.0 0.00 0.00 0.00 53 1014.6
20260904135929 14 234 0.0 0.0 0.00 0.00 0.00 53 1014.4
20260904135528 14 279 0.0 0.0 0.00 0.00 0.00 53 1014.4
20260904134727 14 308 0.0 0.0 0.00 0.00 0.00 53 1014.3
20260904134325 14 279 0.0 1.6 0.00 0.00 0.00 53 1014.2
20260904133923 14 274 1.6 1.6 0.00 0.00 0.00 53 1014.2
20260904133121 14 292 0.0 0.0 0.00 0.00 0.00 52 1014.3
20260904131917 14 294 0.0 0.0 0.00 0.00 0.00 52 1014.3
20260904131516 14 299 0.0 0.0 0.00 0.00 0.00 52 1014.3
20260904130714 14 186 0.0 0.0 0.00 0.00 0.00 52 1014.3
20260904130312 14 184 0.0 0.0 0.00 0.00 0.00 52 1014.3
20260904125107 14 209 0.0 1.6 0.00 0.00 0.00 52 1014.2
20260904124305 14 247 0.0 0.0 0.00 0.00 0.00 52 1014.2
20260904123904 14 274 0.0 0.0 0.00 0.00 0.00 52 1014.2
20260904123102 14 283 0.0 0.0 0.00 0.00 0.00 52 1014.1
20260904122700 14 279 0.0 0.0 0.00 0.00 0.00 52 1014.1
20260904121858 14 241 1.6 1.6 0.00 0.00 0.00 52 1014.1
20260904121457 14 283 1.6 1.6 0.00 0.00 0.00 52 1014.1
20260904121055 14 274 0.0 0.0 0.00 0.00 0.00 52 1014.1
20260904120656 14 288 0.0 0.0 0.00 0.00 0.00 52 0.1
20260904120654 14 288 0.0 0.0 0.00 0.00 0.00 52 1014.0
20260904120252 14 279 0.0 1.6 0.00 0.00 0.00 52 1014.1
20260904115852 14 335 0.0 1.6 0.00 0.00 0.00 52 1014.0
20260904115450 14 42 1.6 1.6 0.00 0.00 0.00 52 1014.0
20260904115049 14 283 0.0 0.0 0.00 0.00 0.00 52 1014.1
20260904114649 14 274 0.0 0.0 0.00 0.00 0.00 52 1014.0
20260904114246 14 279 0.0 0.0 0.00 0.00 0.00 52 1014.1
20260904113443 14 285 0.0 1.6 0.00 0.00 0.00 52 1014.1
20260904112641 14 301 0.0 0.0 0.00 0.00 0.00 53 1014.2
20260904112241 14 279 0.0 0.0 0.00 0.00 0.00 53 1014.1
20260904111839 14 339 0.0 3.2 0.00 0.00 0.00 53 1014.2
20260904111437 14 270 0.0 0.0 0.00 0.00 0.00 53 1014.1
20260904111036 14 288 0.0 1.6 0.00 0.00 0.00 53 1014.1
20260904110634 14 272 0.0 1.6 0.00 0.00 0.00 53 1014.2
20260904110233 14 274 0.0 0.0 0.00 0.00 0.00 53 1014.2
20260904105832 14 288 0.0 0.0 0.00 0.00 0.00 52 1014.2
20260904105431 14 283 0.0 0.0 0.00 0.00 0.00 52 1014.2
20260904105029 14 333 0.0 0.0 0.00 0.00 0.00 52 1014.2
20260904104628 14 321 0.0 0.0 0.00 0.00 0.00 52 1014.1
20260904104227 14 330 0.0 0.0 0.00 0.00 0.00 52 1014.2
20260904103425 14 330 0.0 0.0 0.00 0.00 0.00 52 1014.0
20260904103023 14 326 0.0 0.0 0.00 0.00 0.00 52 1014.1
20260904102621 14 321 0.0 0.0 0.00 0.00 0.00 52 1014.1
20260904102220 14 319 0.0 0.0 0.00 0.00 0.00 52 1014.1
20260904101819 14 330 0.0 0.0 0.00 0.00 0.00 51 1014.0
20260904101420 14 346 0.0 0.0 0.00 0.00 0.00 51 1014.0
20260904100615 14 328 0.0 0.0 0.00 0.00 0.00 51 1014.0
20260904100214 14 337 0.0 0.0 0.00 0.00 0.00 51 1014.1
20260904095812 14 274 0.0 0.0 0.00 0.00 0.00 51 1014.1
20260904095412 14 279 0.0 0.0 0.00 0.00 0.00 51 1013.9
20260904095010 14 279 0.0 0.0 0.00 0.00 0.00 51 1013.9
20260904094609 14 292 0.0 0.0 0.00 0.00 0.00 51 1014.1
20260904094208 14 247 0.0 0.0 0.00 0.00 0.00 51 1013.9
20260904093806 14 274 0.0 0.0 0.00 0.00 0.00 51 1013.9
20260904093405 14 274 0.0 0.0 0.00 0.00 0.00 51 1013.9
20260904092603 15 274 0.0 0.0 0.00 0.00 0.00 51 1013.9
20260904092201 15 288 0.0 0.0 0.00 0.00 0.00 51 1013.9
20260904091358 15 227 0.0 0.0 0.00 0.00 0.00 50 1013.9
20260904090957 15 292 0.0 0.0 0.00 0.00 0.00 50 1013.8
20260904090556 15 335 0.0 0.0 0.00 0.00 0.00 50 1013.8
20260904090155 15 306 0.0 0.0 0.00 0.00 0.00 50 1013.9
20260904085754 15 274 0.0 1.6 0.00 0.00 0.00 50 1013.9
20260904085352 15 279 0.0 0.0 0.00 0.00 0.00 50 1014.0
20260904084950 15 301 0.0 0.0 0.00 0.00 0.00 50 1013.9
20260904084549 15 294 0.0 0.0 0.00 0.00 0.00 50 1014.1
20260904084148 15 297 0.0 0.0 0.00 0.00 0.00 50 1014.1
20260904083747 15 184 0.0 0.0 0.00 0.00 0.00 50 1014.1
20260904082945 15 294 0.0 0.0 0.00 0.00 0.00 50 1014.1
20260904082544 15 292 0.0 0.0 0.00 0.00 0.00 50 1014.0
20260904082142 15 306 0.0 0.0 0.00 0.00 0.00 49 1014.1
20260904081741 15 38 0.0 0.0 0.00 0.00 0.00 49 1014.2
20260904081339 15 42 0.0 0.0 0.00 0.00 0.00 49 1014.2
20260904080938 16 344 0.0 0.0 0.00 0.00 0.00 49 1014.3
20260904080537 16 337 0.0 0.0 0.00 0.00 0.00 49 1014.3
20260904075333 16 42 0.0 0.0 0.00 0.00 0.00 49 1014.4
20260904074932 16 36 0.0 0.0 0.00 0.00 0.00 49 1014.4
20260904074531 16 40 0.0 0.0 0.00 0.00 0.00 49 1014.4
20260904074129 16 45 0.0 0.0 0.00 0.00 0.00 48 1014.4
20260904073727 16 87 0.0 0.0 0.00 0.00 0.00 48 1014.3
20260904073326 16 85 0.0 0.0 0.00 0.00 0.00 48 1014.3
20260904072925 16 139 0.0 0.0 0.00 0.00 0.00 48 1014.3
20260904071722 16 274 0.0 0.0 0.00 0.00 0.00 48 1014.2
20260904071320 16 288 0.0 0.0 0.00 0.00 0.00 48 1014.1
20260904070517 16 288 0.0 0.0 0.00 0.00 0.00 48 1014.1
20260904070119 16 279 0.0 0.0 0.00 0.00 0.00 48 1014.1
20260904064912 17 299 0.0 0.0 0.00 0.00 0.00 47 1014.1
20260904064110 17 137 0.0 0.0 0.00 0.00 0.00 47 1014.0
20260904063709 17 135 0.0 0.0 0.00 0.00 0.00 47 1014.0
20260904063308 17 137 0.0 0.0 0.00 0.00 0.00 47 1014.0
20260904062103 17 141 0.0 0.0 0.00 0.00 0.00 47 1014.0
20260904060904 17 135 1.6 1.6 0.00 0.00 0.00 47 1013.9
20260904060459 17 137 1.6 1.6 0.00 0.00 0.00 47 1013.9
20260904060057 17 135 1.6 1.6 0.00 0.00 0.00 46 1013.9
20260904055655 17 83 0.0 1.6 0.00 0.00 0.00 46 1013.9
20260904055254 17 135 1.6 1.6 0.00 0.00 0.00 46 1013.9
20260904054853 17 330 0.0 0.0 0.00 0.00 0.00 46 1013.9
20260904054452 17 326 0.0 0.0 0.00 0.00 0.00 46 1014.0
20260904054051 17 328 0.0 1.6 0.00 0.00 0.00 46 1014.0
20260904053651 18 337 0.0 0.0 0.00 0.00 0.00 46 1014.0
20260904053248 18 274 0.0 0.0 0.00 0.00 0.00 46 1013.9
20260904052847 18 279 0.0 0.0 0.00 0.00 0.00 46 1013.9
20260904052446 18 330 0.0 0.0 0.00 0.00 0.00 46 1013.9
20260904052044 18 330 0.0 0.0 0.00 0.00 0.00 45 1014.0
20260904051241 18 328 0.0 1.6 0.00 0.00 0.00 45 1014.0
20260904050038 18 283 0.0 1.6 0.00 0.00 0.00 45 1014.0
20260904045637 18 290 0.0 0.0 0.00 0.00 0.00 45 1014.1
20260904045236 18 308 0.0 0.0 0.00 0.00 0.00 44 1013.9
20260904044433 19 306 0.0 0.0 0.00 0.00 0.00 44 1014.0
20260904043630 19 135 0.0 1.6 0.00 0.00 0.00 44 1013.9
20260904043229 19 137 1.6 1.6 0.00 0.00 0.00 44 1013.8
20260904042828 19 137 1.6 3.2 0.00 0.00 0.00 44 1013.8
20260904042426 19 236 0.0 1.6 0.00 0.00 0.00 43 1013.9
20260904041624 19 232 0.0 1.6 0.00 0.00 0.00 43 1013.8
20260904041222 19 135 0.0 1.6 0.00 0.00 0.00 43 1013.8
20260904035617 20 137 0.0 3.2 0.00 0.00 0.00 42 1013.6
20260904035216 20 135 0.0 1.6 0.00 0.00 0.00 42 1013.5
20260904034815 20 189 0.0 1.6 0.00 0.00 0.00 41 1013.6
20260904034415 20 135 1.6 1.6 0.00 0.00 0.00 41 1013.5
20260904033611 20 135 1.6 1.6 0.00 0.00 0.00 41 1013.3
20260904032808 20 78 1.6 1.6 0.00 0.00 0.00 41 1013.3
20260904032407 20 135 1.6 3.2 0.00 0.00 0.00 40 1013.2
20260904031605 20 137 4.8 6.4 0.00 0.00 0.00 40 1013.3
20260904031206 20 135 6.4 6.4 0.00 0.00 0.00 39 1013.2
20260904030803 20 135 4.8 8.0 0.00 0.00 0.00 39 1013.1
20260904030401 20 144 6.4 8.0 0.00 0.00 0.00 39 1013.1
20260904025559 21 137 8.0 9.7 0.00 0.00 0.00 38 1013.0
20260904025158 21 139 8.0 9.7 0.00 0.00 0.00 38 1013.0
20260904024355 21 135 8.0 11.3 0.00 0.00 0.00 37 1013.0
20260904023552 21 139 8.0 11.3 0.00 0.00 0.00 36 1013.0
20260904023151 21 139 9.7 11.3 0.00 0.00 0.00 36 1012.9
20260904022749 22 137 9.7 11.3 0.00 0.00 0.00 35 1012.9
20260904022347 22 132 9.7 9.7 0.00 0.00 0.00 35 1012.8
20260904021138 22 130 8.0 11.3 0.00 0.00 0.00 33 1012.8
20260904020335 23 132 8.0 11.3 0.00 0.00 0.00 32 1012.8
20260904015934 23 112 6.4 12.9 0.00 0.00 0.00 32 1012.8
20260904015533 24 150 8.0 11.3 0.00 0.00 0.00 32 1012.9
20260904015131 24 166 4.8 11.3 0.00 0.00 0.00 31 1012.9
20260904014730 24 135 9.7 11.3 0.00 0.00 0.00 31 1012.8
20260904014329 24 137 9.7 12.9 0.00 0.00 0.00 30 1012.9
20260904013929 25 139 9.7 12.9 0.00 0.00 0.00 30
20260904013526 25 135 11.3 14.5 0.00 0.00 0.00 29 1012.9
20260904013125 26 139 8.0 11.3 0.00 0.00 0.00 29 1012.8
20260904012724 26 168 3.2 9.7 0.00 0.00 0.00 29 1012.8
20260904012323 26 177 6.4 14.5 0.00 0.00 0.00 28 1012.8
20260904011921 26 189 6.4 14.5 0.00 0.00 0.00 28 1012.8
20260904011522 27 160 8.0 11.3 0.00 0.00 0.00 28 1012.9
20260904010316 28 160 6.4 12.9 0.00 0.00 0.00 27 1012.9
20260904005917 28 182 9.7 14.5 0.00 0.00 0.00 27 1012.8
20260904005515 28 180 6.4 11.3 0.00 0.00 0.00 27 1012.9
20260904005113 28 171 6.4 9.7 0.00 0.00 0.00 27 1013.0
20260904004711 28 173 9.7 14.5 0.00 0.00 0.00 27 1012.9
20260904004309 29 185 6.4 9.7 0.00 0.00 0.00 27 1012.9
20260904003909 28 173 6.4 11.3 0.00 0.00 0.00 26 1012.9
20260904003106 28 182 11.3 16.1 0.00 0.00 0.00 26 1013.0
20260904001902 28 150 9.7 16.1 0.00 0.00 0.00 27 1013.0
20260904001501 28 180 9.7 12.9 0.00 0.00 0.00 27 1013.0
20260904001059 29 159 8.0 12.9 0.00 0.00 0.00 27 1013.1
20260904000658 29 168 6.4 11.3 0.00 0.00 0.00 26 1013.1
20260904000257 29 144 4.8 14.5 0.00 0.00 0.00 26 1013.2